Weather History for KTTN - July, 2013

Change the Weather History Date:

Friday, July 5, 2013

  Actual Average Record
Temperature  
Mean Temperature 82 °F 75 °F  
Max Temperature 91 °F 85 °F 102 °F (1999)
Min Temperature 72 °F 65 °F 53 °F (1979)
Degree Days  
Heating Degree Days 0 0  
Month to date heating degree days 0 0  
Since 1 June heating degree days 4 24  
Since 1 July heating degree days 0 0  
Cooling Degree Days 17 10  
Month to date cooling degree days 70 49  
Year to date cooling degree days 378 296  
Since 1 June cooling degree days 288 239  
Growing Degree Days 32 (Base 50)    
Moisture  
Dew Point 71 °F    
Average Humidity 72    
Maximum Humidity 94    
Minimum Humidity 50    
Precipitation  
Precipitation 0.00 in 0.15 in 2.80 in (1989)
Month to date precipitation 0.59 0.81  
Year to date precipitation 23.57 22.74  
Sea Level Pressure  
Sea Level Pressure 30.16 in    
Wind  
Wind Speed 6 mph (SW)    
Max Wind Speed 17 mph    
Max Gust Speed 21 mph    
Visibility 10 miles    
Events      
T = Trace of Precipitation, MM = Missing Value Source: NWS Daily Summary

Daily Weather History Graph

Daily Weather History Graph

Search for Another Location

Airport or City:

Trip Planner

Search our weather history database for the weather conditions in past years. The results will help you decide how hot, cold, wet, or windy it might be!

Date:

Astronomy

Jul. 05, 2013 Rise Set
Actual Time 5:35 AM EDT 8:32 PM EDT
Civil Twilight 5:02 AM EDT 9:04 PM EDT
Nautical Twilight 4:21 AM EDT 9:46 PM EDT
Astronomical Twilight 3:33 AM EDT 10:33 PM EDT
Moon 3:33 AM EDT (7/5) 6:24 PM EDT (7/5)
Length of Visible Light 16h 01m
Length of Day
14h 56m
Waning Crescent, 6% of the Moon is Illuminated
Jul 5
Waning Crescent
Jul 8
New
Jul 15
First Quarter
Jul 22
Full
Jul 29
Last Quarter

Hourly Weather History & Observations

Time (EDT) Temp. Heat Index Dew Point Humidity Pressure Visibility Wind Dir Wind Speed Gust Speed Precip Events Conditions
12:53 AM 75.0 °F - 71.1 °F 87% 30.20 in 8.0 mi SSW 3.5 mph - N/A   Clear
1:53 AM 75.9 °F - 71.1 °F 85% 30.20 in 10.0 mi SSW 6.9 mph - N/A   Clear
2:53 AM 73.9 °F - 71.1 °F 91% 30.19 in 10.0 mi SW 4.6 mph - N/A   Clear
3:53 AM 73.0 °F - 71.1 °F 93% 30.19 in 10.0 mi SW 3.5 mph - N/A   Clear
4:53 AM 73.0 °F - 71.1 °F 93% 30.19 in 10.0 mi Calm Calm - N/A   Clear
5:53 AM 73.0 °F - 70.0 °F 90% 30.20 in 8.0 mi Calm Calm - N/A   Partly Cloudy
6:18 AM 73.4 °F - 71.6 °F 94% 30.22 in 8.0 mi SSW 3.5 mph - N/A   Mostly Cloudy
6:53 AM 73.9 °F - 71.1 °F 91% 30.20 in 9.0 mi Calm Calm - N/A   Mostly Cloudy
7:53 AM 75.9 °F - 73.0 °F 91% 30.20 in 10.0 mi SSW 3.5 mph - N/A   Overcast
8:50 AM 80.6 °F 85.4 °F 73.4 °F 79% 30.22 in 10.0 mi SW 6.9 mph - N/A   Scattered Clouds
8:53 AM 80.1 °F 84.2 °F 73.0 °F 79% 30.19 in 10.0 mi SW 6.9 mph - N/A   Scattered Clouds
9:53 AM 82.9 °F 88.8 °F 73.0 °F 72% 30.19 in 10.0 mi SW 10.4 mph - N/A   Partly Cloudy
10:53 AM 84.9 °F 90.7 °F 72.0 °F 65% 30.18 in 10.0 mi SW 5.8 mph - N/A   Partly Cloudy
11:53 AM 87.1 °F 94.5 °F 73.0 °F 63% 30.18 in 10.0 mi SW 9.2 mph - N/A   Scattered Clouds
12:53 PM 89.1 °F 96.0 °F 72.0 °F 57% 30.16 in 10.0 mi SW 10.4 mph 18.4 mph N/A   Scattered Clouds
1:53 PM 90.0 °F 95.4 °F 70.0 °F 52% 30.15 in 10.0 mi SW 9.2 mph 19.6 mph N/A   Partly Cloudy
2:53 PM 90.0 °F 94.5 °F 69.1 °F 50% 30.14 in 10.0 mi SW 9.2 mph - N/A   Clear
3:53 PM 89.1 °F 94.1 °F 70.0 °F 53% 30.12 in 10.0 mi SW 11.5 mph - N/A   Scattered Clouds
4:53 PM 89.1 °F 92.9 °F 68.0 °F 50% 30.11 in 10.0 mi SW 12.7 mph - N/A   Clear
5:53 PM 88.0 °F 92.1 °F 69.1 °F 53% 30.09 in 10.0 mi SW 9.2 mph - N/A   Clear
6:53 PM 87.1 °F 92.0 °F 70.0 °F 57% 30.09 in 10.0 mi SW 12.7 mph 17.3 mph N/A   Partly Cloudy
7:53 PM 84.9 °F 89.4 °F 70.0 °F 61% 30.09 in 10.0 mi SW 5.8 mph - N/A   Clear
8:53 PM 82.9 °F 87.0 °F 70.0 °F 65% 30.10 in 10.0 mi WSW 4.6 mph - N/A   Clear
9:53 PM 81.0 °F 84.4 °F 70.0 °F 69% 30.12 in 10.0 mi SW 4.6 mph - N/A   Clear
10:53 PM 81.0 °F 84.9 °F 71.1 °F 72% 30.13 in 10.0 mi WSW 5.8 mph - N/A   Clear
11:53 PM 79.0 °F - 71.1 °F 77% 30.13 in 10.0 mi SW 3.5 mph - N/A   Clear